Time,TemperatureF,DewpointF,PressureIn,WindDirection,WindDirectionDegrees,WindSpeedMPH,WindSpeedGustMPH,Humidity,HourlyPrecipIn,Conditions,Clouds,dailyrainin,SoftwareType,DateUTC
2013-01-14 00:02:00,28.0,12.0,-100.00,ENE,60,12.0,21.0,50,-99.99,,,-99.99,,2013-01-14 08:02:00,
2013-01-14 00:12:00,28.0,12.0,-100.00,ENE,57,13.0,19.0,50,-99.99,,,-99.99,,2013-01-14 08:12:00,
2013-01-14 00:22:00,27.0,11.0,-100.00,ENE,59,14.0,19.0,50,-99.99,,,-99.99,,2013-01-14 08:22:00,
2013-01-14 00:32:00,28.0,12.0,-100.00,ENE,62,15.0,22.0,50,-99.99,,,-99.99,,2013-01-14 08:32:00,
2013-01-14 00:42:00,27.0,11.0,-100.00,ENE,59,14.0,26.0,50,-99.99,,,-99.99,,2013-01-14 08:42:00,
2013-01-14 00:52:00,27.0,11.0,-100.00,ENE,58,13.0,23.0,50,-99.99,,,-99.99,,2013-01-14 08:52:00,
2013-01-14 01:02:00,27.0,10.0,-100.00,NE,56,16.0,24.0,49,-99.99,,,-99.99,,2013-01-14 09:02:00,
2013-01-14 01:11:00,27.0,12.0,-100.00,NE,50,14.0,20.0,52,-99.99,,,-99.99,,2013-01-14 09:11:00,
2013-01-14 01:22:00,26.0,10.0,-100.00,NE,50,14.0,21.0,51,-99.99,,,-99.99,,2013-01-14 09:22:00,
2013-01-14 01:33:00,26.0,9.0,-100.00,NE,56,17.0,24.0,48,-99.99,,,-99.99,,2013-01-14 09:33:00,
2013-01-14 01:42:00,26.0,9.0,-100.00,NE,56,17.0,24.0,48,-99.99,,,-99.99,,2013-01-14 09:42:00,
2013-01-14 01:52:00,26.0,9.0,-100.00,NE,56,17.0,24.0,48,-99.99,,,-99.99,,2013-01-14 09:52:00,
2013-01-14 02:02:00,26.0,7.0,-100.00,NE,56,15.0,21.0,43,-99.99,,,-99.99,,2013-01-14 10:02:00,
2013-01-14 02:11:00,25.0,6.0,-100.00,NE,53,15.0,24.0,43,-99.99,,,-99.99,,2013-01-14 10:11:00,
2013-01-14 02:22:00,25.0,5.0,-100.00,NE,54,16.0,25.0,42,-99.99,,,-99.99,,2013-01-14 10:22:00,
2013-01-14 02:32:00,25.0,4.0,-100.00,NE,55,16.0,25.0,39,-99.99,,,-99.99,,2013-01-14 10:32:00,
2013-01-14 02:42:00,25.0,2.0,-100.00,NE,56,17.0,25.0,37,-99.99,,,-99.99,,2013-01-14 10:42:00,
2013-01-14 02:52:00,25.0,2.0,-100.00,NE,56,16.0,24.0,37,-99.99,,,-99.99,,2013-01-14 10:52:00,
2013-01-14 03:02:00,25.0,4.0,-100.00,ENE,58,15.0,22.0,39,-99.99,,,-99.99,,2013-01-14 11:02:00,
2013-01-14 03:11:00,25.0,4.0,-100.00,ENE,58,15.0,22.0,39,-99.99,,,-99.99,,2013-01-14 11:11:00,
2013-01-14 03:22:00,25.0,4.0,-100.00,ENE,58,16.0,23.0,39,-99.99,,,-99.99,,2013-01-14 11:22:00,
2013-01-14 03:32:00,25.0,4.0,-100.00,NE,55,14.0,21.0,40,-99.99,,,-99.99,,2013-01-14 11:32:00,
2013-01-14 03:42:00,24.0,3.0,-100.00,NE,54,15.0,23.0,40,-99.99,,,-99.99,,2013-01-14 11:42:00,
2013-01-14 03:53:00,24.0,3.0,-100.00,NE,55,15.0,22.0,39,-99.99,,,-99.99,,2013-01-14 11:53:00,
2013-01-14 04:02:00,24.0,3.0,-100.00,NE,55,15.0,22.0,39,-99.99,,,-99.99,,2013-01-14 12:02:00,
2013-01-14 04:12:00,24.0,3.0,-100.00,NE,53,15.0,23.0,39,-99.99,,,-99.99,,2013-01-14 12:12:00,
2013-01-14 04:22:00,24.0,2.0,-100.00,NE,55,15.0,24.0,38,-99.99,,,-99.99,,2013-01-14 12:22:00,
2013-01-14 04:33:00,24.0,2.0,-100.00,NE,51,14.0,21.0,37,-99.99,,,-99.99,,2013-01-14 12:33:00,
2013-01-14 04:42:00,24.0,1.0,-100.00,NE,54,15.0,22.0,36,-99.99,,,-99.99,,2013-01-14 12:42:00,
2013-01-14 04:52:00,24.0,0.0,-100.00,ENE,58,15.0,21.0,35,-99.99,,,-99.99,,2013-01-14 12:52:00,
2013-01-14 05:03:00,24.0,0.0,-100.00,NE,55,13.0,22.0,34,-99.99,,,-99.99,,2013-01-14 13:03:00,
2013-01-14 05:12:00,24.0,1.0,-100.00,ENE,64,13.0,22.0,36,-99.99,,,-99.99,,2013-01-14 13:12:00,
2013-01-14 05:22:00,24.0,2.0,-100.00,ENE,64,14.0,22.0,37,-99.99,,,-99.99,,2013-01-14 13:22:00,
2013-01-14 05:33:00,24.0,0.0,-100.00,ENE,64,14.0,18.0,35,-99.99,,,-99.99,,2013-01-14 13:33:00,
2013-01-14 05:43:00,24.0,0.0,-100.00,ENE,64,14.0,18.0,35,-99.99,,,-99.99,,2013-01-14 13:43:00,
2013-01-14 05:52:00,23.0,1.0,-100.00,ENE,63,13.0,19.0,37,-99.99,,,-99.99,,2013-01-14 13:52:00,
2013-01-14 06:02:00,23.0,1.0,-100.00,ENE,63,15.0,23.0,38,-99.99,,,-99.99,,2013-01-14 14:02:00,
2013-01-14 06:12:00,23.0,2.0,-100.00,ENE,62,15.0,25.0,39,-99.99,,,-99.99,,2013-01-14 14:12:00,
2013-01-14 06:22:00,23.0,1.0,-100.00,ENE,62,17.0,25.0,37,-99.99,,,-99.99,,2013-01-14 14:22:00,
2013-01-14 06:32:00,23.0,1.0,-100.00,NE,54,16.0,25.0,38,-99.99,,,-99.99,,2013-01-14 14:32:00,
2013-01-14 06:42:00,23.0,1.0,-100.00,NE,54,16.0,25.0,38,-99.99,,,-99.99,,2013-01-14 14:42:00,
2013-01-14 06:52:00,23.0,1.0,-100.00,NE,56,15.0,25.0,37,-99.99,,,-99.99,,2013-01-14 14:52:00,
2013-01-14 07:02:00,23.0,1.0,-100.00,NE,56,15.0,25.0,37,-99.99,,,-99.99,,2013-01-14 15:02:00,
2013-01-14 07:12:00,22.0,0.0,-100.00,NE,55,15.0,20.0,38,-99.99,,,-99.99,,2013-01-14 15:12:00,
2013-01-14 07:23:00,22.0,0.0,-100.00,NE,54,15.0,22.0,38,-99.99,,,-99.99,,2013-01-14 15:23:00,
2013-01-14 07:33:00,22.0,0.0,-100.00,NE,55,16.0,23.0,37,-99.99,,,-99.99,,2013-01-14 15:33:00,
2013-01-14 07:42:00,22.0,0.0,-100.00,NE,54,16.0,23.0,38,-99.99,,,-99.99,,2013-01-14 15:42:00,
2013-01-14 07:53:00,22.0,1.0,-100.00,NE,56,18.0,24.0,39,-99.99,,,-99.99,,2013-01-14 15:53:00,
2013-01-14 08:02:00,22.0,1.0,-100.00,ENE,57,17.0,23.0,39,-99.99,,,-99.99,,2013-01-14 16:02:00,
2013-01-14 08:12:00,23.0,1.0,-100.00,ENE,63,18.0,24.0,37,-99.99,,,-99.99,,2013-01-14 16:12:00,
2013-01-14 08:23:00,23.0,1.0,-100.00,ENE,64,14.0,20.0,37,-99.99,,,-99.99,,2013-01-14 16:23:00,
2013-01-14 08:33:00,23.0,0.0,-100.00,ENE,65,14.0,22.0,36,-99.99,,,-99.99,,2013-01-14 16:33:00,
2013-01-14 08:42:00,24.0,0.0,-100.00,ENE,64,13.0,18.0,34,-99.99,,,-99.99,,2013-01-14 16:42:00,
2013-01-14 08:52:00,25.0,1.0,-100.00,ENE,68,9.0,14.0,34,-99.99,,,-99.99,,2013-01-14 16:52:00,
2013-01-14 09:02:00,25.0,1.0,-100.00,ENE,68,9.0,14.0,34,-99.99,,,-99.99,,2013-01-14 17:02:00,
2013-01-14 09:12:00,26.0,0.0,-100.00,ENE,64,8.0,12.0,32,-99.99,,,-99.99,,2013-01-14 17:12:00,
2013-01-14 09:22:00,27.0,0.0,-100.00,NE,53,10.0,15.0,31,-99.99,,,-99.99,,2013-01-14 17:22:00,
2013-01-14 09:33:00,28.0,1.0,-100.00,NE,51,10.0,17.0,31,-99.99,,,-99.99,,2013-01-14 17:33:00,
2013-01-14 09:42:00,29.0,1.0,-100.00,ENE,60,12.0,17.0,30,-99.99,,,-99.99,,2013-01-14 17:42:00,
2013-01-14 09:53:00,29.0,1.0,-100.00,ENE,61,14.0,19.0,30,-99.99,,,-99.99,,2013-01-14 17:53:00,
2013-01-14 10:02:00,29.0,1.0,-100.00,ENE,59,11.0,17.0,29,-99.99,,,-99.99,,2013-01-14 18:02:00,
2013-01-14 10:12:00,30.0,2.0,-100.00,NE,54,13.0,19.0,30,-99.99,,,-99.99,,2013-01-14 18:12:00,
2013-01-14 10:22:00,30.0,2.0,-100.00,ENE,65,13.0,19.0,30,-99.99,,,-99.99,,2013-01-14 18:22:00,
2013-01-14 10:33:00,30.0,2.0,-100.00,ENE,63,13.0,20.0,29,-99.99,,,-99.99,,2013-01-14 18:33:00,
2013-01-14 10:42:00,31.0,0.0,-100.00,ENE,59,15.0,20.0,26,-99.99,,,-99.99,,2013-01-14 18:42:00,
2013-01-14 10:52:00,31.0,-1.0,-100.00,ENE,64,14.0,21.0,25,-99.99,,,-99.99,,2013-01-14 18:52:00,
2013-01-14 11:02:00,30.0,-2.0,-100.00,ENE,61,16.0,21.0,25,-99.99,,,-99.99,,2013-01-14 19:02:00,
2013-01-14 11:12:00,30.0,-2.0,-100.00,ENE,67,15.0,20.0,25,-99.99,,,-99.99,,2013-01-14 19:12:00,
2013-01-14 11:22:00,30.0,-2.0,-100.00,ENE,63,16.0,21.0,24,-99.99,,,-99.99,,2013-01-14 19:22:00,
2013-01-14 11:32:00,31.0,-2.0,-100.00,ENE,64,14.0,19.0,24,-99.99,,,-99.99,,2013-01-14 19:32:00,
2013-01-14 11:42:00,31.0,-2.0,-100.00,ENE,63,15.0,20.0,23,-99.99,,,-99.99,,2013-01-14 19:42:00,
2013-01-14 11:52:00,32.0,-2.0,-100.00,ENE,57,13.0,18.0,22,-99.99,,,-99.99,,2013-01-14 19:52:00,
2013-01-14 12:03:00,33.0,-3.0,-100.00,NE,52,13.0,19.0,21,-99.99,,,-99.99,,2013-01-14 20:03:00,
2013-01-14 12:12:00,33.0,-4.0,-100.00,NE,52,14.0,20.0,20,-99.99,,,-99.99,,2013-01-14 20:12:00,
2013-01-14 12:22:00,33.0,-7.0,-100.00,NE,53,16.0,22.0,17,-99.99,,,-99.99,,2013-01-14 20:22:00,
2013-01-14 12:33:00,34.0,-6.0,-100.00,NE,50,14.0,20.0,17,-99.99,,,-99.99,,2013-01-14 20:33:00,
2013-01-14 12:42:00,34.0,-9.0,-100.00,NE,51,15.0,21.0,15,-99.99,,,-99.99,,2013-01-14 20:42:00,
2013-01-14 12:52:00,34.0,-7.0,-100.00,NE,52,14.0,22.0,16,-99.99,,,-99.99,,2013-01-14 20:52:00,
2013-01-14 13:02:00,35.0,-8.0,-100.00,NE,39,11.0,20.0,15,-99.99,,,-99.99,,2013-01-14 21:02:00,
2013-01-14 13:12:00,36.0,-9.0,-100.00,NNE,23,10.0,18.0,14,-99.99,,,-99.99,,2013-01-14 21:12:00,
2013-01-14 13:22:00,36.0,-12.0,-100.00,North,360,15.0,24.0,12,-99.99,,,-99.99,,2013-01-14 21:22:00,
2013-01-14 13:32:00,36.0,-12.0,-100.00,North,358,14.0,21.0,12,-99.99,,,-99.99,,2013-01-14 21:32:00,
2013-01-14 13:42:00,36.0,-10.0,-100.00,North,358,13.0,20.0,13,-99.99,,,-99.99,,2013-01-14 21:42:00,
2013-01-14 13:53:00,35.0,-9.0,-100.00,NNE,20,15.0,28.0,14,-99.99,,,-99.99,,2013-01-14 21:53:00,
2013-01-14 14:02:00,35.0,-9.0,-100.00,NNE,31,17.0,26.0,14,-99.99,,,-99.99,,2013-01-14 22:02:00,
2013-01-14 14:12:00,35.0,-8.0,-100.00,NNE,32,17.0,27.0,15,-99.99,,,-99.99,,2013-01-14 22:12:00,
2013-01-14 14:23:00,35.0,-8.0,-100.00,NNE,32,17.0,27.0,15,-99.99,,,-99.99,,2013-01-14 22:23:00,
2013-01-14 14:32:00,35.0,-7.0,-100.00,NE,36,15.0,25.0,16,-99.99,,,-99.99,,2013-01-14 22:32:00,
2013-01-14 14:42:00,35.0,-8.0,-100.00,NNE,32,14.0,20.0,15,-99.99,,,-99.99,,2013-01-14 22:42:00,
2013-01-14 14:52:00,35.0,-7.0,-100.00,NNE,33,14.0,21.0,16,-99.99,,,-99.99,,2013-01-14 22:52:00,
2013-01-14 15:02:00,35.0,-7.0,-100.00,NNE,33,14.0,21.0,16,-99.99,,,-99.99,,2013-01-14 23:02:00,
2013-01-14 15:12:00,34.0,-6.0,-100.00,NE,36,17.0,23.0,17,-99.99,,,-99.99,,2013-01-14 23:12:00,
2013-01-14 15:22:00,33.0,-6.0,-100.00,NE,42,16.0,23.0,18,-99.99,,,-99.99,,2013-01-14 23:22:00,
2013-01-14 15:33:00,33.0,-6.0,-100.00,NNE,33,15.0,21.0,18,-99.99,,,-99.99,,2013-01-14 23:33:00,
2013-01-14 15:42:00,33.0,-7.0,-100.00,NE,40,14.0,20.0,17,-99.99,,,-99.99,,2013-01-14 23:42:00,
2013-01-14 15:52:00,33.0,-6.0,-100.00,NE,41,13.0,19.0,18,-99.99,,,-99.99,,2013-01-14 23:52:00,
2013-01-14 16:02:00,33.0,-6.0,-100.00,NE,36,14.0,22.0,18,-99.99,,,-99.99,,2013-01-15 00:02:00,
2013-01-14 16:12:00,33.0,-8.0,-100.00,NNE,30,14.0,22.0,16,-99.99,,,-99.99,,2013-01-15 00:12:00,
2013-01-14 16:22:00,33.0,-10.0,-100.00,NNE,30,15.0,22.0,15,-99.99,,,-99.99,,2013-01-15 00:22:00,
2013-01-14 16:32:00,32.0,-8.0,-100.00,NE,39,13.0,21.0,17,-99.99,,,-99.99,,2013-01-15 00:32:00,
2013-01-14 16:43:00,31.0,-9.0,-100.00,NNE,30,15.0,20.0,17,-99.99,,,-99.99,,2013-01-15 00:43:00,
2013-01-14 16:52:00,31.0,-7.0,-100.00,NNE,25,13.0,19.0,18,-99.99,,,-99.99,,2013-01-15 00:52:00,
2013-01-14 17:02:00,31.0,-7.0,-100.00,NNE,25,13.0,19.0,18,-99.99,,,-99.99,,2013-01-15 01:02:00,
2013-01-14 17:12:00,30.0,-5.0,-100.00,NE,43,13.0,19.0,21,-99.99,,,-99.99,,2013-01-15 01:12:00,
2013-01-14 17:22:00,29.0,-5.0,-100.00,NE,45,11.0,15.0,22,-99.99,,,-99.99,,2013-01-15 01:22:00,
2013-01-14 17:32:00,29.0,-5.0,-100.00,NE,45,11.0,15.0,22,-99.99,,,-99.99,,2013-01-15 01:32:00,
2013-01-14 17:42:00,29.0,-5.0,-100.00,NE,45,11.0,15.0,22,-99.99,,,-99.99,,2013-01-15 01:42:00,
2013-01-14 17:52:00,27.0,-6.0,-100.00,NE,39,9.0,13.0,23,-99.99,,,-99.99,,2013-01-15 01:52:00,
2013-01-14 18:02:00,27.0,-6.0,-100.00,NNE,31,7.0,10.0,23,-99.99,,,-99.99,,2013-01-15 02:02:00,
2013-01-14 18:12:00,26.0,-7.0,-100.00,NE,34,5.0,8.0,23,-99.99,,,-99.99,,2013-01-15 02:12:00,
2013-01-14 18:22:00,26.0,-7.0,-100.00,NE,43,9.0,16.0,23,-99.99,,,-99.99,,2013-01-15 02:22:00,
2013-01-14 18:32:00,27.0,-7.0,-100.00,NE,47,13.0,19.0,22,-99.99,,,-99.99,,2013-01-15 02:32:00,
2013-01-14 18:42:00,27.0,-8.0,-100.00,NE,41,16.0,24.0,21,-99.99,,,-99.99,,2013-01-15 02:42:00,
2013-01-14 18:52:00,27.0,-8.0,-100.00,NNE,32,13.0,19.0,21,-99.99,,,-99.99,,2013-01-15 02:52:00,
2013-01-14 19:02:00,27.0,-8.0,-100.00,NNE,32,13.0,19.0,21,-99.99,,,-99.99,,2013-01-15 03:02:00,
2013-01-14 19:12:00,27.0,-7.0,-100.00,NE,41,17.0,25.0,22,-99.99,,,-99.99,,2013-01-15 03:12:00,
2013-01-14 19:22:00,27.0,-7.0,-100.00,NE,43,16.0,23.0,22,-99.99,,,-99.99,,2013-01-15 03:22:00,
2013-01-14 19:32:00,27.0,-7.0,-100.00,NE,38,16.0,25.0,22,-99.99,,,-99.99,,2013-01-15 03:32:00,
2013-01-14 19:42:00,27.0,-7.0,-100.00,NE,43,18.0,26.0,22,-99.99,,,-99.99,,2013-01-15 03:42:00,
2013-01-14 19:52:00,27.0,-6.0,-100.00,NE,50,19.0,28.0,23,-99.99,,,-99.99,,2013-01-15 03:52:00,
2013-01-14 20:02:00,27.0,-6.0,-100.00,NE,50,19.0,28.0,23,-99.99,,,-99.99,,2013-01-15 04:02:00,
2013-01-14 20:12:00,27.0,-6.0,-100.00,NE,49,22.0,32.0,23,-99.99,,,-99.99,,2013-01-15 04:12:00,
2013-01-14 20:22:00,27.0,-7.0,-100.00,NE,46,21.0,31.0,22,-99.99,,,-99.99,,2013-01-15 04:22:00,
2013-01-14 20:32:00,27.0,-7.0,-100.00,NE,38,21.0,30.0,22,-99.99,,,-99.99,,2013-01-15 04:32:00,
2013-01-14 20:42:00,27.0,-7.0,-100.00,NE,38,21.0,30.0,22,-99.99,,,-99.99,,2013-01-15 04:42:00,
2013-01-14 20:52:00,27.0,-7.0,-100.00,NE,40,22.0,30.0,22,-99.99,,,-99.99,,2013-01-15 04:52:00,
2013-01-14 21:03:00,27.0,-7.0,-100.00,NE,43,22.0,30.0,22,-99.99,,,-99.99,,2013-01-15 05:03:00,
2013-01-14 21:12:00,27.0,-7.0,-100.00,NE,44,21.0,29.0,22,-99.99,,,-99.99,,2013-01-15 05:12:00,
2013-01-14 21:22:00,27.0,-7.0,-100.00,NE,42,24.0,35.0,22,-99.99,,,-99.99,,2013-01-15 05:22:00,
2013-01-14 21:33:00,27.0,-7.0,-100.00,NE,37,21.0,29.0,22,-99.99,,,-99.99,,2013-01-15 05:33:00,
2013-01-14 21:42:00,27.0,-8.0,-100.00,NE,39,22.0,33.0,21,-99.99,,,-99.99,,2013-01-15 05:42:00,
2013-01-14 21:52:00,27.0,-8.0,-100.00,NE,40,21.0,31.0,21,-99.99,,,-99.99,,2013-01-15 05:52:00,
2013-01-14 22:02:00,27.0,-8.0,-100.00,NE,43,20.0,31.0,21,-99.99,,,-99.99,,2013-01-15 06:02:00,
2013-01-14 22:12:00,27.0,-7.0,-100.00,NE,43,20.0,27.0,22,-99.99,,,-99.99,,2013-01-15 06:12:00,
2013-01-14 22:22:00,26.0,-7.0,-100.00,NE,45,18.0,24.0,23,-99.99,,,-99.99,,2013-01-15 06:22:00,
2013-01-14 22:32:00,26.0,-7.0,-100.00,NE,41,20.0,30.0,23,-99.99,,,-99.99,,2013-01-15 06:32:00,
2013-01-14 22:42:00,26.0,-8.0,-100.00,NE,39,20.0,30.0,22,-99.99,,,-99.99,,2013-01-15 06:42:00,
2013-01-14 22:52:00,26.0,-8.0,-100.00,NE,43,21.0,33.0,22,-99.99,,,-99.99,,2013-01-15 06:52:00,
2013-01-14 23:02:00,26.0,-8.0,-100.00,NE,38,20.0,28.0,22,-99.99,,,-99.99,,2013-01-15 07:02:00,
2013-01-14 23:12:00,26.0,-7.0,-100.00,NE,35,21.0,29.0,23,-99.99,,,-99.99,,2013-01-15 07:12:00,
2013-01-14 23:22:00,26.0,-7.0,-100.00,NE,41,20.0,29.0,23,-99.99,,,-99.99,,2013-01-15 07:22:00,
2013-01-14 23:32:00,26.0,-6.0,-100.00,NE,41,20.0,29.0,24,-99.99,,,-99.99,,2013-01-15 07:32:00,
2013-01-14 23:42:00,26.0,-6.0,-100.00,NE,40,18.0,28.0,24,-99.99,,,-99.99,,2013-01-15 07:42:00,
2013-01-14 23:52:00,26.0,-6.0,-100.00,NE,37,17.0,25.0,24,-99.99,,,-99.99,,2013-01-15 07:52:00,